Tracking 20370 objects as of 20-Feb-2020
HD Live streaming from Space Station
objects crossing your sky now
Track the group of recently launched Starlink satellites

TITAN 3C TRANSTAGE R/B

Track TITAN 3C TRANSTAGE R/B now!


NORAD ID: 2770
Int'l Code: 1967-040F
Perigee: 5,026.4 km
Apogee: 114,699.1 km
Inclination: 42.2 °
Period: 2,827.3 minutes
Semi major axis: 66233 km
RCS: 3.1623 m2 (large)
Launch date: April 28, 1967
Source: United States (US)
Launch site: AIR FORCE EASTERN TEST RANGE (AFETR)

Note: This is a ROCKET BODY
aabbcc
Your satellite tracking list
Your tracking list is empty




NASA's NSSDC Master Catalog

Two Line Element Set (TLE):
1  2770U 67040F   20013.23418215 -.00000716 +00000-0 +00000-0 0  9990
2  2770 042.2315 341.6777 8279223 169.2189 358.9986 00.50931210011426
Source of the keplerian elements: AFSPC